#timestamp,LO_Frequency,Hit 
1498536015.7,286047018.8,N
1498536035.5,286047014.6,N
1498536055.3,286047020.2,N
1498536075.2,286047021.5,N
1498536095.9,286047019.9,N
1498536115.7,286047017.4,N
1498536135.6,286047020.2,N
1498536155.4,286047020.3,N
1498536175.2,286047019.5,N
1498536195.0,286047019.4,N
1498536195.9,286047019.4,N
1498536215.8,286047020.1,N
1498536235.6,286047019.1,N
1498536255.4,286047019.2,N
1498536275.3,286047018.9,N
1498536295.1,286047021.3,N
1498536315.8,286047021.5,N
1498536335.7,286047019.7,N
1498536355.5,286047020.1,N
1498536375.3,286047017.7,N
1498536395.2,286047019.7,N
1498536415.9,286047019.9,N
1498536435.7,286047020.2,N
1498536455.6,286047017.5,N
1498536475.4,286047016.3,N
1498536495.2,286047014.7,N
1498536515.0,286047017.1,N
1498536516.0,286047017.1,N
1498536535.8,286047015.9,N
1498536555.6,286047016.4,N
1498536575.4,286047016.8,N
1498536595.3,286047017.0,N
1498536615.1,286047014.2,N
1498536635.8,286047016.9,N
1498536655.7,286047016.4,N
1498536675.5,286047016.9,N
1498536695.3,286047014.1,N
1498536715.2,286047015.9,N
1498536735.9,286047017.6,N
1498536755.7,286047016.0,N
1498536775.6,286047017.4,N
1498536795.4,286047019.6,N
1498536815.2,286047022.0,N
1498536835.0,286047023.6,N
1498536836.0,286047023.6,N
1498536855.8,286047020.6,N
1498536875.6,286047020.8,N
1498536895.4,286047020.6,N
1498536915.3,286047019.0,N
1498536935.1,286047019.7,N
1498536955.8,286047017.4,N
1498536975.7,286047019.2,N
1498536995.5,286047020.6,N
1498537015.3,286047021.3,N
1498537035.2,286047021.6,N
1498537055.9,286047019.8,N
1498537075.7,286047020.8,N
1498537095.6,286047025.0,N
1498537115.4,286047024.8,N
1498537135.2,286047025.2,N
1498537155.1,286047020.8,N
1498537156.0,286047020.8,N
1498537175.8,286047021.0,N
1498537195.6,286047020.7,N
1498537215.4,286047021.6,N
1498537235.3,286047019.1,N
1498537255.1,286047021.2,N
1498537275.8,286047021.9,N
1498537295.7,286047023.3,N
1498537315.5,286047020.6,N
1498537335.3,286047022.9,N
1498537355.2,286047021.8,N
1498537375.9,286047019.1,N
1498537395.7,286047019.3,N
1498537415.6,286047021.1,N
1498537435.4,286047019.3,N
1498537455.2,286047019.6,N
1498537475.1,286047017.9,N
1498537476.0,286047017.9,N
1498537495.8,286047016.0,N
1498537515.6,286047016.2,N
1498537535.4,286047015.8,N
1498537555.3,286047020.0,N
1498537575.1,286047018.4,N
1498537595.8,286047014.1,N
1498537615.7,286047015.0,N
1498537635.5,286047016.8,N
1498537655.3,286047016.5,N
1498537675.2,286047015.9,N
1498537695.9,286047017.9,N
1498537715.7,286047018.4,N
1498537735.6,286047020.3,N
1498537755.4,286047019.1,N
1498537775.2,286047019.3,N
1498537795.1,286047020.0,N
1498537796.0,286047020.0,N
1498537815.8,286047020.0,N
1498537835.6,286047016.6,N
1498537855.4,286047017.4,N
1498537875.3,286047017.5,N
1498537895.1,286047019.6,N
1498537915.8,286047019.6,N
1498537935.7,286047020.2,N
1498537955.5,286047019.4,N
1498537975.3,286047017.6,N
1498537995.2,286047017.9,N
1498538015.9,286047019.4,N
1498538035.7,286047018.9,N
1498538055.6,286047017.3,N
1498538075.4,286047018.7,N
1498538095.2,286047016.6,N
1498538115.0,286047018.1,N
1498538116.0,286047018.1,N
1498538135.8,286047019.7,N
1498538155.6,286047017.4,N
1498538175.4,286047017.8,N
1498538195.3,286047021.1,N
1498538215.1,286047019.5,N
1498538235.8,286047020.3,N
1498538255.7,286047019.9,N
1498538275.5,286047018.7,N
1498538295.3,286047018.2,N
1498538315.2,286047017.8,N
1498538335.9,286047021.2,N
1498538355.7,286047022.4,N
1498538375.6,286047020.7,N
1498538395.4,286047021.4,N
1498538415.2,286047017.7,N
1498538435.0,286047018.3,N
1498538436.0,286047018.3,N
1498538455.8,286047016.2,N
1498538475.6,286047016.0,N
1498538495.4,286047016.4,N
1498538515.3,286047018.7,N
1498538535.1,286047016.6,N
1498538555.8,286047016.2,N
1498538575.7,286047018.2,N
1498538595.5,286047016.4,N
1498538615.3,286047017.0,N
1498538635.2,286047016.8,N
1498538655.9,286047016.7,N
1498538675.7,286047015.6,N
1498538695.6,286047017.0,N
1498538715.4,286047016.2,N
1498538735.2,286047016.0,N
1498538755.0,286047017.5,N
1498538756.0,286047017.5,N
1498538775.8,286047019.2,N
1498538795.6,286047019.4,N
1498538815.4,286047022.3,N
1498538835.3,286047020.9,N
1498538855.1,286047021.5,N
1498538875.8,286047019.7,N
1498538895.7,286047018.9,N
1498538915.5,286047020.7,N
1498538935.3,286047023.1,N
1498538955.2,286047022.3,N
1498538975.9,286047022.4,N
1498538995.7,286047023.6,N
1498539015.6,286047023.2,N
1498539035.4,286047020.9,N
1498539055.2,286047019.3,N
1498539075.0,286047019.1,N
1498539075.9,286047019.1,N
1498539095.8,286047020.3,N
1498539115.6,286047019.4,N
1498539135.4,286047018.5,N
1498539155.3,286047018.5,N
1498539175.1,286047019.2,N
1498539195.8,286047018.5,N
1498539215.7,286047018.7,N
1498539235.5,286047018.9,N
1498539255.3,286047021.3,N
1498539275.2,286047021.2,N
1498539295.9,286047021.7,N
1498539315.7,286047022.0,N
1498539335.6,286047019.0,N
1498539355.4,286047021.5,N
1498539375.2,286047019.4,N
1498539395.0,286047021.8,N
1498539395.9,286047021.8,N
1498539415.8,286047021.3,N
1498539435.6,286047021.9,N
1498539455.4,286047016.0,N
1498539475.3,286047016.2,N
1498539495.1,286047017.7,N
1498539515.8,286047020.0,N
1498539535.7,286047020.1,N
1498539555.5,286047020.3,N
1498539575.3,286047020.2,N
1498539595.2,286047020.0,N
